Theta_e
293 293 291 292 293 295 294 296 299 306 316 320 321 323 321 321 322 322 320 320 320 319 319 321 322 329 331 331 330 330 330 330 329 329 327 322 326 327 326 326 326 327 327
292 293 293 290 292 290 290 291 296 305 317 318 315 319 318 318 318 320 321 319 322 322 323 322 324 326 327 327 328 327 327 327 327 327 327 326 328 328 322 322 323 325 327
294 293 294 291 289 290 288 288 296 301 307 312 310 314 314 312 314 316 313 306 314 314 317 318 319 320 321 321 322 323 324 324 324 323 325 327 327 324 321 321 324 324 326
293 293 290 290 291 289 292 292 296 301 302 303 304 304 304 307 309 307 306 306 304 307 309 309 310 313 315 315 316 316 316 317 318 320 321 322 322 324 325 324 325 323 323
289 289 288 290 290 291 291 292 293 295 297 297 299 301 301 302 301 301 304 303 303 303 303 302 301 301 302 305 309 310 310 311 312 313 313 316 317 321 318 320 325 325 324
286 286 286 287 287 288 289 288 289 290 291 292 293 295 295 293 294 294 296 296 296 296 296 296 297 298 299 299 300 301 302 303 306 307 307 308 311 312 316 317 318 319 324
284 284 285 286 285 285 286 287 287 287 287 287 288 288 288 288 288 289 290 290 290 291 291 291 291 292 293 294 295 297 298 298 298 299 300 301 303 306 307 310 316 314 317
284 283 283 284 284 285 285 285 284 285 286 287 287 287 288 287 287 287 287 288 288 287 288 287 287 288 289 290 291 292 293 294 295 295 296 297 298 299 301 303 305 310 314
284 283 283 283 283 284 284 284 284 284 284 283 284 284 286 286 286 286 286 286 286 286 285 285 285 286 286 287 288 289 290 291 292 292 293 293 294 295 296 300 301 304 308
284 284 283 283 283 283 282 282 282 283 283 283 283 283 283 282 283 284 285 285 285 284 284 283 283 283 284 285 285 286 287 288 289 291 292 293 293 294 294 295 297 298 298
284 283 283 283 283 282 282 282 282 281 282 282 282 282 282 282 281 281 281 281 281 281 281 282 282 282 282 283 284 284 284 286 287 288 289 289 290 291 292 292 292 294 295
283 283 282 282 282 282 282 282 282 282 282 281 280 280 280 280 279 279 280 280 280 280 279 279 280 280 281 282 282 283 283 284 285 285 285 286 287 287 288 289 289 291 292
282 282 282 282 282 282 282 282 282 281 281 280 279 279 278 278 279 279 279 279 279 278 278 278 278 279 279 280 280 281 281 281 282 282 282 282 282 283 284 286 288 288 289
284 283 282 282 281 281 280 280 280 280 279 279 278 277 276 276 276 276 276 277 278 277 277 277 277 278 278 279 279 279 279 278 278 279 279 280 281 282 282 282 284 285 287
283 282 281 281 280 279 279 278 278 278 278 277 277 276 276 276 275 275 274 274 274 274 275 276 277 277 277 277 277 277 277 277 278 277 278 278 279 279 280 280 281 282 283
282 282 281 280 279 279 278 278 278 277 277 277 276 275 275 275 275 274 273 274 274 274 275 275 275 274 273 273 274 274 274 275 275 276 276 277 278 278 278 279 279 280 281
281 280 280 280 280 280 280 279 278 277 277 276 276 275 274 274 274 273 273 273 273 274 273 272 272 272 271 271 271 271 272 272 273 274 275 276 277 277 277 278 278 279 280
280 280 280 279 279 278 278 277 276 276 276 276 275 274 274 273 273 273 273 273 273 272 271 270 270 270 270 270 270 270 271 271 272 272 274 275 275 276 276 276 277 278 278
280 279 278 278 277 277 276 276 275 275 274 274 274 273 273 272 272 272 271 271 270 270 270 269 269 268 268 268 268 269 269 270 270 271 273 274 274 275 275 275 276 277 278
279 278 277 277 276 276 275 275 275 274 273 273 273 272 272 272 271 271 270 270 270 269 269 269 268 268 267 267 267 268 268 269 269 270 271 272 273 273 274 274 275 275 276
277 277 276 276 276 275 275 274 274 273 273 272 272 272 271 271 271 270 270 270 269 269 269 268 268 267 267 267 267 267 267 267 268 268 270 271 272 272 273 273 274 274 275
276 276 276 275 275 275 274 274 273 273 272 272 272 271 271 271 270 270 270 269 269 269 268 268 267 267 267 266 266 266 266 266 267 268 268 269 270 271 271 272 273 273 274
275 275 275 275 275 274 274 273 273 272 272 272 272 271 271 271 270 270 269 269 269 268 268 268 267 267 267 266 266 265 265 265 266 267 267 268 269 270 270 271 271 272 273
275 274 274 274 274 274 273 273 272 272 272 272 271 271 271 270 270 270 270 269 269 269 268 268 267 267 267 266 265 265 265 265 265 266 266 267 268 268 269 270 270 271 272
275 275 274 274 274 273 273 273 272 272 272 271 271 271 270 270 270 270 270 269 269 268 268 268 267 267 266 265 265 264 264 264 265 265 266 266 267 267 268 268 269 270 271
274 274 274 274 273 273 273 273 272 272 271 271 271 270 270 269 269 270 270 269 269 268 268 267 267 266 266 265 265 264 264 264 264 265 265 266 266 267 267 268 269 269 270
Wind_Speed
29 29 36 31 26 26 23 23 30 32 30 22 19 15 8 5 8 9 16 15 9 11 10 10 7 14 14 13 15 17 23 30 33 34 28 40 38 38 31 35 35 36 36
38 35 33 41 35 35 29 29 37 40 35 34 32 27 29 25 17 15 8 12 8 11 13 12 5 5 5 10 18 22 22 18 21 18 27 33 39 38 31 36 42 43 39
37 41 40 40 41 38 36 33 46 47 47 44 39 34 30 29 27 22 21 25 19 17 16 12 11 8 8 10 11 16 19 22 22 23 19 19 27 29 32 33 38 41 40
31 33 37 39 41 42 45 49 51 48 47 42 43 40 37 34 32 26 25 25 26 24 21 18 16 13 11 10 10 12 12 16 21 25 27 24 26 28 37 32 41 37 42
30 32 34 33 37 42 46 48 48 49 47 44 42 41 40 37 35 28 25 24 24 25 24 24 23 20 17 15 13 14 15 16 17 19 18 16 18 24 16 17 34 38 46
33 34 34 37 39 40 42 44 44 45 43 40 41 41 38 37 33 30 29 29 28 27 27 24 22 20 19 19 17 16 18 20 19 19 20 20 20 22 26 27 25 22 27
34 34 35 36 38 39 39 40 42 41 41 42 42 39 38 36 34 33 32 30 29 29 27 27 25 24 22 20 18 16 16 18 19 19 19 19 22 23 26 27 28 30 34
33 34 35 34 35 36 37 38 38 38 40 39 38 36 34 36 33 32 30 29 29 29 30 28 27 27 28 26 23 21 19 19 20 20 20 20 20 23 24 26 28 32 37
30 31 32 33 32 33 35 35 35 35 36 38 36 34 34 34 33 31 28 27 27 27 27 28 28 28 28 28 28 28 26 23 21 20 18 17 18 19 22 24 25 26 30
24 27 28 30 31 32 32 33 33 34 35 34 34 36 33 33 32 30 29 29 26 26 25 26 27 29 30 30 30 30 30 30 29 27 20 18 19 18 19 20 22 26 25
18 21 25 26 29 29 30 30 31 32 33 33 33 32 31 29 29 28 26 25 26 25 26 27 27 28 28 28 28 28 28 29 28 26 26 26 25 25 23 20 21 20 26
14 18 20 23 24 26 27 28 29 30 31 33 32 32 30 29 29 28 26 26 25 24 25 25 26 26 26 25 23 23 22 24 25 28 29 28 29 29 30 27 22 20 21
15 17 18 19 21 23 24 25 26 27 29 31 32 33 32 30 29 28 25 24 24 24 24 24 23 23 21 19 20 20 21 23 24 24 28 28 28 27 27 27 25 22 19
13 14 15 16 18 19 21 23 25 27 30 31 32 32 31 29 30 30 27 25 24 22 21 22 21 20 21 21 21 22 21 20 22 23 23 25 26 27 28 28 28 27 26
11 13 15 16 17 18 19 20 22 24 26 25 27 29 31 28 24 22 24 27 27 27 25 24 24 24 23 22 22 22 23 23 24 24 24 24 25 26 27 28 28 27 24
8 10 12 14 15 16 16 17 16 15 13 15 17 22 23 21 19 20 23 28 28 27 26 27 28 29 29 29 29 27 26 24 23 21 22 22 23 24 26 26 26 26 24
9 10 10 11 13 15 15 16 16 14 14 15 19 21 22 19 17 17 21 26 25 24 25 26 27 28 28 28 27 25 26 24 23 20 20 22 22 21 21 24 25 26 24
6 7 7 9 11 12 13 14 13 14 18 19 19 21 22 22 20 22 25 26 28 29 29 29 28 27 27 26 26 25 25 25 24 21 17 18 19 20 20 22 24 24 23
7 7 7 8 10 11 13 12 11 13 16 16 18 19 22 22 22 23 25 27 27 28 28 29 30 28 27 26 26 24 24 24 23 21 15 16 17 20 19 19 22 22 20
7 7 6 8 10 12 15 15 15 16 18 16 18 20 21 22 23 24 24 24 25 26 26 27 29 28 29 27 26 25 23 23 22 20 16 15 17 17 19 20 23 24 22
8 7 6 9 11 13 14 17 16 17 16 17 19 20 21 21 22 23 23 23 24 26 26 28 28 27 31 27 28 27 23 22 22 20 17 15 16 17 17 18 20 22 19
8 9 8 10 11 13 15 16 15 16 17 19 20 21 22 22 23 24 22 22 23 25 24 29 25 27 29 28 28 28 25 23 23 19 16 15 16 17 17 16 18 21 19
8 10 11 11 12 13 14 14 15 16 18 19 20 21 23 23 23 23 23 23 25 24 25 26 24 28 30 30 27 25 24 25 24 19 18 17 16 17 18 17 18 20 21
10 13 13 12 12 13 14 16 17 18 20 23 24 23 24 24 23 24 23 23 23 25 26 23 24 28 33 29 24 22 23 24 22 20 18 18 18 18 18 17 16 16 18
14 13 12 13 12 12 15 18 19 20 23 24 24 25 27 24 23 24 23 22 23 24 23 22 25 30 29 21 20 20 19 22 21 18 16 16 17 18 17 14 14 14 15
11 13 11 11 12 14 18 22 20 23 24 24 27 27 27 28 26 24 22 22 23 22 21 21 25 25 24 23 21 19 20 22 21 17 16 16 17 16 14 12 12 11 12
Wind_Direction
39 37 42 43 56 68 61 87 102 111 124 133 124 136 166 126 130 115 199 223 246 245 320 5 62 171 202 249 248 254 261 270 263 253 263 268 257 258 263 276 271 259 261
51 51 42 48 51 63 55 64 92 95 105 102 97 111 102 105 108 124 129 111 145 136 198 217 314 344 310 266 269 265 275 279 278 282 278 271 258 271 260 281 281 264 262
53 58 58 52 52 60 59 54 85 88 89 95 92 90 91 85 79 77 80 82 88 66 62 35 17 353 318 303 298 289 289 287 288 284 284 282 281 277 266 269 270 266 271
53 60 58 58 60 59 62 65 72 77 81 84 85 86 81 80 79 75 72 67 68 70 68 62 50 36 18 355 337 326 317 307 300 293 290 289 281 298 281 281 263 259 260
57 59 62 65 66 65 63 63 65 70 75 75 77 77 76 74 70 70 72 65 62 59 57 55 54 51 41 25 359 342 328 321 317 320 314 310 303 277 296 290 263 270 260
56 57 60 63 61 63 63 63 63 65 67 70 73 73 71 66 63 59 60 57 54 54 52 50 47 46 45 41 29 16 5 354 343 330 324 324 309 304 293 281 284 297 266
57 56 57 58 60 61 62 62 62 60 61 62 62 63 64 61 55 51 49 48 44 41 37 34 30 28 26 26 25 23 17 9 1 353 343 332 317 311 307 293 285 286 272
58 56 55 56 57 58 59 58 60 58 56 56 56 55 54 54 50 47 43 41 38 35 29 23 20 17 14 12 8 12 13 5 1 359 353 340 333 322 310 306 308 291 284
58 56 55 56 57 58 58 57 58 57 57 56 56 53 49 47 42 39 35 34 33 29 25 19 13 11 7 2 357 356 358 356 358 355 348 340 335 324 316 314 307 304 295
54 56 55 55 56 58 59 59 58 57 56 52 49 47 44 41 36 30 26 22 18 17 15 11 10 9 6 2 356 353 350 350 346 340 340 336 335 332 330 330 319 318 313
59 55 55 53 53 53 56 57 57 56 54 51 47 45 41 39 36 30 26 23 22 15 12 9 8 6 2 356 353 354 351 342 339 340 340 342 341 338 332 336 332 320 310
64 60 54 51 49 47 48 48 47 45 44 44 43 42 38 34 33 29 24 21 18 14 13 9 4 359 356 353 351 348 340 336 340 342 344 350 349 342 336 335 331 323 310
69 62 53 47 43 40 39 39 39 38 36 36 34 32 31 26 24 23 22 16 16 14 10 3 358 355 352 353 359 354 350 352 351 349 350 352 352 349 338 330 326 326 326
62 59 54 48 43 40 35 34 33 31 27 26 25 25 28 28 22 7 12 15 14 9 6 358 353 355 357 355 355 357 358 360 2 358 356 349 345 348 349 347 338 332 328
54 48 46 44 40 38 36 37 35 31 24 20 14 12 17 24 21 8 12 15 7 7 1 353 352 355 356 356 356 354 355 355 354 357 355 349 350 350 350 348 345 339 338
53 44 36 37 36 34 32 33 37 35 29 10 10 10 12 17 11 11 8 6 1 359 354 358 359 359 359 357 355 352 351 350 349 347 350 352 352 351 350 347 348 348 343
40 38 26 19 15 15 13 8 4 7 4 3 358 2 7 14 12 11 5 2 359 358 3 2 1 359 356 354 351 347 345 343 340 342 347 352 348 345 352 350 348 351 351
22 17 4 356 358 6 3 359 354 353 352 354 353 352 352 359 1 357 354 352 357 0 4 3 358 356 354 350 348 344 340 340 341 340 340 347 350 347 346 352 350 346 349
350 352 354 345 354 359 358 360 353 352 355 351 347 346 351 353 354 352 353 356 357 356 358 358 358 355 353 352 349 345 343 340 341 339 330 338 343 348 349 347 345 346 343
325 331 340 339 344 349 354 354 354 354 350 345 347 349 348 347 348 352 350 350 351 351 351 352 351 351 348 348 349 347 343 342 340 341 333 330 337 343 340 341 344 338 340
304 320 338 332 335 345 347 350 351 346 347 343 344 345 344 344 344 344 343 342 344 344 343 346 342 342 343 338 343 344 341 340 339 338 336 330 332 335 338 340 341 339 333
301 311 326 335 336 342 345 347 344 346 347 347 346 345 344 343 344 342 338 337 339 340 340 341 342 344 342 336 336 339 340 337 336 332 332 331 332 334 329 335 340 340 339
319 316 314 324 331 335 338 338 338 338 339 338 338 336 338 337 336 337 336 336 334 335 334 336 339 336 340 336 332 332 336 338 336 331 327 325 328 330 332 337 334 332 337
339 326 316 317 321 327 328 331 331 331 331 329 328 329 331 329 326 328 325 327 328 329 330 332 332 333 334 331 327 331 335 332 331 329 320 318 319 325 330 328 333 332 334
329 325 315 310 314 321 323 323 323 321 324 325 324 320 321 318 317 320 318 318 321 322 324 326 328 331 331 329 326 335 339 338 336 327 319 319 317 314 320 324 327 326 333
326 333 329 319 315 315 318 318 312 310 315 314 315 316 317 316 309 310 307 307 310 312 316 320 323 330 335 329 335 335 335 341 338 331 322 319 322 323 319 323 324 328 330